This demonstration page uses our WeatherBlox Daily Observations layout. Learn more.

Left ArrowRight Arrow

Hourly Observations for August 21, 2018

Temp ( °F °C ) Dew Point ( °F °C ) Humidity (%) Winds ( mph kmh ) Pressure ( in mb ) Visibility ( mi km ) Precip ( " mm )
12:19 am 00:19 Cloudy with Light Rain 67 19.4 64 17.8 91 91 W 12 19 29.88 1012 4 6 0.00 0.03
2:03 am 02:03 Cloudy 68 20 64 17.8 87 87 W 10 17 29.88 1012 10 16 0.00 0.00
2:52 am 02:52 Cloudy with Light Rain 68 20 65 18.3 90 90 WNW 6 9 29.89 1012 5 8 0.00 0.03
3:41 am 03:41 Cloudy with Light Rain 68 20 65 18.3 90 90 W 9 15 29.91 1013 5 8 0.01 0.25
3:52 am 03:52 Cloudy with Light Rain 68 20 65 18.3 90 90 WNW 9 15 29.90 1013 4 6 0.01 0.25
4:45 am 04:45 Cloudy with Light Rain 68 20 66 18.9 93 93 WNW 9 15 29.91 1013 4 6 0.01 0.25
4:52 am 04:52 Cloudy with Light Rain 68 20 66 18.9 93 93 WNW 9 15 29.92 1013 5 8 0.01 0.25
5:52 am 05:52 Cloudy with Mist and Fog 68 20 66 18.9 93 93 WNW 9 15 29.94 1014 6 10 0.03 0.76
6:52 am 06:52 Cloudy 68 20 66 18.9 93 93 WNW 9 15 29.96 1015 7 11 0.00 0.03
7:52 am 07:52 Cloudy 68 20 66 18.9 93 93 WNW 9 15 29.99 1016 7 11 0.00 0.00
8:52 am 08:52 Cloudy with Light Rain 68 20 66 18.9 93 93 NW 9 15 30.01 1016 5 8 0.00 0.03
9:42 am 09:42 Cloudy 70 21.1 66 18.9 87 87 NNW 14 22 30.03 1017 10 16 0.00 0.03
9:52 am 09:52 Cloudy 70 21.1 66 18.9 87 87 NW 12 19 30.02 1017 10 16 0.00 0.03
10:23 am 10:23 Cloudy 70 21.1 66 18.9 87 87 NW 10 17 30.03 1017 10 16 0.00 0.00
10:52 am 10:52 Cloudy 72 22.2 66 18.9 82 82 NNW 16 26 30.04 1017 10 16 0.00 0.00
11:23 am 11:23 Mostly Cloudy 75 23.9 65 18.3 71 71 NNW 16 26 30.03 1017 10 16 0.00 0.00
11:52 am 11:52 Mostly Cloudy 75 23.9 64 17.8 69 69 NNW 17 28 30.05 1018 10 16 0.00 0.00
12:04 pm 12:04 Mostly Cloudy 76 24.4 63 17.2 64 64 N 18 30 30.03 1017 10 16 0.00 0.00
12:52 pm 12:52 Mostly Sunny 79 26.1 63 17.2 58 58 NNW 15 24 30.05 1018 10 16 0.00 0.00
1:52 pm 13:52 Partly Cloudy 81 27.2 64 17.8 57 57 NNW 18 30 30.05 1018 10 16 0.00 0.00
2:52 pm 14:52 Mostly Sunny 81 27.2 62 16.7 53 53 NNW 16 26 30.06 1018 10 16 0.00 0.00
3:52 pm 15:52 Partly Cloudy 82 27.8 62 16.7 51 51 N 14 22 30.06 1018 10 16 0.00 0.00
4:52 pm 16:52 Mostly Cloudy 82 27.8 62 16.7 51 51 N 10 17 30.07 1018 10 16 0.00 0.00
5:52 pm 17:52 Mostly Sunny 80 26.7 60 15.6 51 51 N 9 15 30.07 1018 10 16 0.00 0.00
6:52 pm 18:52 Sunny 79 26.1 62 16.7 56 56 N 7 11 30.07 1018 10 16 0.00 0.00
7:52 pm 19:52 Sunny 75 23.9 62 16.7 64 64 NNW 3 6 30.08 1019 10 16 0.00 0.00
8:52 pm 20:52 Clear 72 22.2 62 16.7 71 71 Calm 30.09 1019 10 16 0.00 0.00
9:52 pm 21:52 Clear 71 21.7 63 17.2 76 76 WNW 3 6 30.12 1020 10 16 0.00 0.00
10:52 pm 22:52 Clear 70 21.1 62 16.7 76 76 Calm 30.13 1020 10 16 0.00 0.00
11:52 pm 23:52 Clear 69 20.6 62 16.7 78 78 Calm 30.12 1020 10 16 0.00 0.00

Powered by AerisWeather